EW8409 Weather Reports


Display with metric or nautical units.
time (UTC)temp
F
wind
direction
speed
MPH
gust
MPH
rain 1hr
in
rain 24hr
in
rain mn
in
humidity
%
barometer
mb
20260507094538 35 297 0.0 0.0 0.00 0.30 0.00 96 1012.3
20260507093036 35 297 0.0 0.0 0.00 0.30 0.00 96 1012.4
20260507091540 35 297 0.0 0.0 0.00 0.30 0.00 96 1012.4
20260507090034 35 309 0.0 0.0 0.00 0.30 0.00 96 1012.1
20260507084542 35 310 0.0 0.0 0.00 0.35 0.00 96 1012.3
20260507083032 35 309 0.0 0.0 0.00 0.35 0.00 95 1012.4
20260507081537 36 310 0.0 0.0 0.00 0.35 0.00 95 1012.5
20260507080028 36 309 0.0 0.0 0.00 0.35 0.00 95 1012.0
20260507074526 37 310 0.0 0.0 0.00 0.48 0.00 95 1012.4
20260507073022 38 309 0.0 0.0 0.00 0.48 0.00 95 1012.4
20260507071520 38 309 0.0 0.0 0.00 0.48 0.00 95 1012.7
20260507070017 39 309 0.0 0.0 0.00 0.48 0.00 95 1012.6
20260507064516 39 309 0.0 0.0 0.00 0.63 0.00 95 1012.4
20260507063016 40 310 0.0 0.0 0.00 0.63 0.00 95 1012.3
20260507061512 40 309 0.0 0.0 0.00 0.63 0.00 94 1012.3
20260507060011 40 309 0.0 0.0 0.00 0.63 0.00 94 1012.5
20260507054509 41 309 0.0 0.0 0.00 0.73 0.00 94 1012.7
20260507053006 41 310 0.0 0.0 0.00 0.73 0.00 94 1012.8
20260507051505 41 311 0.0 0.0 0.00 0.73 0.00 93 1012.8
20260507050003 41 311 0.0 0.0 0.00 0.73 0.00 93 1013.1
20260507044501 41 311 0.0 0.0 0.00 0.78 0.00 94 1012.9
20260507043127 41 150 0.0 0.0 0.00 0.78 0.00 95 1012.9
20260507041601 42 86 0.0 0.0 0.00 0.78 0.00 95 1012.8
20260507040056 42 110 0.0 0.0 0.00 0.78 0.00 96 1012.7
20260507034556 42 101 0.0 0.0 0.00 0.81 0.78 96 1012.6
20260507033054 42 144 0.0 0.0 0.00 0.81 0.78 96 1012.8
20260507031553 42 164 0.0 0.0 0.00 0.81 0.78 96 1012.5
20260507030052 42 164 0.0 0.0 0.00 0.81 0.78 96 1012.5
20260507024555 42 175 0.0 0.0 0.00 0.83 0.78 96 1012.3
20260507023104 42 169 0.0 0.0 0.00 0.83 0.78 96 1012.4
20260507021551 42 202 0.0 0.0 0.00 0.83 0.78 96 1012.4
20260507020057 42 193 0.0 0.0 0.00 0.83 0.78 96 1012.6
20260507014549 42 160 0.0 0.0 0.00 0.87 0.78 95 1012.5
20260507013048 42 154 0.0 0.0 0.00 0.87 0.78 95 1012.3
20260507011549 42 336 0.0 0.0 0.01 0.87 0.78 95 1012.5
20260507010046 43 271 0.0 0.0 0.03 0.87 0.78 95 1012.3
20260507004544 43 14 0.0 0.0 0.05 0.90 0.78 95 1012.1
20260507003041 43 360 0.0 0.0 0.07 0.90 0.78 94 1011.3
20260507001605 44 25 0.0 0.0 0.08 0.89 0.77 93 1011.4
20260507000042 45 312 0.0 5.0 0.08 0.87 0.75 92 1011.4
20260506234535 46 66 0.0 0.0 0.06 0.91 0.73 93 1010.9
20260506233133 47 66 0.0 0.0 0.04 0.89 0.71 91 1010.7
20260506231531 47 66 0.0 0.0 0.02 0.87 0.69 90 1010.4
20260506230048 48 66 0.0 0.0 0.00 0.85 0.67 88 1010.2
20260506224529 48 66 0.0 0.0 0.00 0.90 0.67 86 1010.0
20260506223032 48 66 0.0 0.0 0.00 0.90 0.67 86 1010.0
20260506221528 48 60 0.0 0.0 0.00 0.90 0.67 85 1009.9
20260506220034 48 60 0.0 0.0 0.00 0.90 0.67 86 1009.9
20260506214527 48 60 0.0 0.0 0.00 0.90 0.67 85 1009.6
20260506213027 48 74 0.0 0.0 0.00 0.90 0.67 84 1009.7
20260506211526 48 75 0.0 0.0 0.00 0.90 0.67 83 1009.8
20260506210044 48 89 0.0 0.0 0.00 0.90 0.67 83 1009.8
20260506204522 48 54 0.0 0.0 0.00 0.90 0.67 82 1009.8
20260506203020 47 56 0.0 0.0 0.00 0.90 0.67 83 1009.8
20260506201522 47 53 0.0 0.0 0.00 0.90 0.67 84 1009.7
20260506200020 47 32 0.0 0.0 0.00 0.90 0.67 84 1009.9
20260506194518 47 328 0.0 0.0 0.00 0.90 0.67 85 1009.8
20260506193022 47 329 0.0 0.0 0.00 0.90 0.67 88 1009.9
20260506191515 46 76 0.0 0.0 0.00 0.90 0.67 88 1009.6
20260506190015 46 8 0.0 0.0 0.00 0.90 0.67 89 1009.9
20260506184512 45 72 0.0 0.0 0.00 0.90 0.67 91 1010.0
20260506183012 44 242 0.0 0.0 0.00 0.90 0.67 93 1009.9
20260506181512 44 18 0.0 0.0 0.00 0.90 0.67 93 1009.8
20260506180011 44 11 0.0 0.0 0.00 0.90 0.67 94 1010.2
20260506174507 44 56 0.0 0.0 0.00 0.90 0.67 94 1009.9
20260506173005 44 342 0.0 0.0 0.00 0.90 0.67 94 1009.6
20260506171504 45 12 0.0 0.0 0.00 0.90 0.67 95 1009.1
20260506170003 44 5 0.0 0.0 0.00 0.90 0.67 95 1009.1
20260506164511 44 53 0.0 0.0 0.00 0.90 0.67 95 1009.1
20260506163006 44 317 0.0 0.0 0.00 0.90 0.67 95 1009.2
20260506161502 44 52 0.0 0.0 0.00 0.90 0.67 96 1009.1
20260506160000 44 32 0.0 0.0 0.00 0.90 0.67 96 1009.1
20260506154601 44 18 0.0 0.0 0.00 0.90 0.67 96 1009.2
20260506153059 44 307 0.0 0.0 0.00 0.90 0.67 96 1009.1
20260506151604 44 46 0.0 0.0 0.00 0.90 0.67 97 1008.9
20260506150107 43 75 0.0 0.0 0.01 0.90 0.67 97 1009.0
20260506144557 43 65 0.0 0.0 0.01 0.90 0.67 97 1008.7
20260506143059 43 47 0.0 0.0 0.02 0.90 0.67 97 1008.6
20260506141556 43 68 0.0 0.0 0.02 0.90 0.67 97 1008.5
20260506140056 43 66 0.0 0.0 0.01 0.89 0.66 97 1008.5
20260506134555 43 75 0.0 0.0 0.02 0.89 0.66 97 1008.6
20260506133108 43 71 0.0 0.0 0.01 0.88 0.65 97 1008.6
20260506131614 43 72 0.0 0.0 0.01 0.88 0.65 97 1008.4
20260506130054 43 46 0.0 0.0 0.02 0.88 0.65 97 1008.4
20260506124553 43 89 0.0 0.0 0.03 0.87 0.64 97 1008.3
20260506123052 43 71 0.0 0.0 0.03 0.87 0.64 97 1008.5
20260506121556 43 80 0.0 0.0 0.04 0.87 0.64 97 1008.3
20260506120100 43 75 0.0 0.0 0.03 0.86 0.63 97 1008.5
20260506114548 43 76 0.0 0.0 0.02 0.84 0.61 97 1008.4
20260506113047 43 75 0.0 0.0 0.03 0.84 0.61 97 1008.2
20260506111547 43 76 0.0 0.0 0.04 0.83 0.60 97 1008.0
20260506110052 43 54 0.0 3.0 0.06 0.83 0.60 97 1008.0
20260506104556 43 64 0.0 0.0 0.07 0.82 0.59 97 1008.1
20260506103045 44 66 0.0 0.0 0.08 0.81 0.57 97 1008.3
20260506101540 44 72 0.0 0.0 0.07 0.79 0.56 97 1008.3
20260506100042 44 29 0.0 0.0 0.06 0.77 0.54 97 1008.3